#timestamp,LO_Frequency,Hit,StdDev 
1513760415.1,286046993.5,Y
1513760435.9,286046999.4,P
1513760455.7,286046997.1,N
1513760475.5,286046993.7,P
1513760495.4,286046993.1,Y
1513760515.2,286046994.2,P
1513760535.0,286046995.4,P
1513760535.9,286046995.4,P
1513760555.8,286046995.0,Y
1513760575.6,286047001.0,P
1513760595.4,286046998.7,N
1513760615.3,286046999.1,N
1513760635.1,286047001.1,N
1513760636.0,286047001.1,N
1513760655.8,286046998.1,N
1513760675.7,286047000.8,N
1513760695.5,286047000.4,N
1513760715.3,286046998.5,N
1513760735.1,286046995.3,N
1513760755.9,286046997.2,N
1513760775.7,286046993.9,Y
1513760795.5,286046992.1,P
1513760815.4,286046994.2,N
1513760835.2,286046993.0,N
1513760855.0,286046991.7,Y
1513760855.9,286046991.7,P
1513760875.8,286047002.8,N
1513760895.6,286047000.5,N
1513760915.4,286046999.2,N
1513760935.3,286046996.1,N
1513760955.1,286046994.3,N
1513760975.8,286046991.7,N
1513760995.7,286046994.2,N
1513761015.5,286046994.5,N
1513761035.3,286046995.7,N
1513761055.2,286046993.4,N
1513761075.9,286046997.8,N
1513761095.7,286046995.0,N
1513761115.6,286046994.7,N
1513761135.4,286046999.5,N
1513761155.2,286046997.9,N
1513761175.0,286046997.1,N
1513761175.9,286046997.1,N
1513761195.8,286046998.4,N
1513761215.6,286046995.7,N
1513761235.4,286046994.8,N
1513761255.3,286046996.1,N
1513761275.1,286046995.2,N
1513761295.8,286046999.1,N
1513761315.7,286047002.0,N
1513761335.5,286047003.3,N
1513761355.3,286047005.3,N
1513761375.2,286047006.2,N
1513761395.9,286047008.1,N
1513761415.7,286047013.5,Y
1513761435.6,286047019.6,P
1513761455.4,286047022.8,N
1513761475.2,286047022.7,N
1513761495.1,286047024.9,N
1513761496.0,286047024.9,N
1513761515.8,286047028.7,N
1513761535.6,286047036.0,Y
1513761555.5,286047016.8,P
1513761575.3,286047017.9,P
1513761595.1,286047015.9,P
1513761615.9,286047015.9,Y
1513761635.7,286047001.2,P
1513761655.5,286046999.1,N
1513761675.4,286046997.6,N
1513761695.2,286046998.9,N
1513761715.0,286046995.0,N
1513761715.9,286046995.0,N
1513761735.8,286046998.3,N
1513761755.6,286046999.4,N
1513761775.4,286046998.6,N
1513761795.2,286046998.5,N
1513761815.1,286046999.4,N
1513761816.0,286046999.4,N
1513761835.8,286046995.2,N
1513761855.6,286046999.3,N
1513761875.5,286046998.1,N
1513761895.3,286047002.0,N
1513761915.1,286047001.5,N
1513761935.9,286047002.4,N
1513761955.7,286047000.4,N
1513761975.5,286047001.5,N
1513761995.4,286047002.8,N
1513762015.2,286047000.9,N
1513762035.0,286047009.2,N
1513762035.9,286047009.2,N
1513762055.8,286047009.3,N
1513762075.6,286047011.7,N
1513762095.4,286047008.2,N
1513762115.2,286047007.5,N
1513762135.1,286047005.7,N
1513762136.0,286047005.7,N
1513762155.8,286047003.5,N
1513762175.6,286047004.7,N
1513762195.5,286047005.4,N
1513762215.3,286047004.0,N
1513762235.1,286047003.1,N
1513762255.9,286047004.6,N
1513762275.7,286047007.6,N
1513762295.5,286047009.7,N
1513762315.4,286047010.8,N
1513762335.2,286047008.8,N
1513762355.0,286047011.4,N
1513762355.9,286047011.4,N
1513762375.8,286047012.3,N
1513762395.6,286047011.4,N
1513762415.4,286047014.8,Y
1513762435.3,286047005.8,P
1513762455.1,286047000.9,P
1513762456.0,286047000.9,N
1513762475.8,286047001.7,N
1513762495.7,286047003.3,N
1513762515.5,286047007.7,Y
1513762535.3,286047005.4,P
1513762555.2,286047005.8,P
1513762575.9,286047002.9,N
1513762595.7,286047004.5,Y
1513762615.6,286046999.0,P
1513762635.4,286046994.9,N
1513762655.2,286046992.2,N
1513762675.1,286046992.9,N
1513762676.0,286046992.9,N
1513762695.8,286046991.1,N
1513762715.6,286046988.1,N
1513762735.5,286046985.4,Y
1513762755.3,286046994.5,P
1513762775.1,286046994.0,P
1513762795.8,286046993.7,P
1513762815.7,286046993.7,Y
1513762835.5,286046996.7,P
1513762855.4,286046995.9,P
1513762875.2,286046992.1,P
1513762895.0,286046991.4,Y
1513762895.9,286046991.4,P
1513762915.8,286046993.9,P
1513762935.6,286046994.7,P
1513762955.4,286046994.0,Y
1513762975.3,286046999.8,P
1513762995.1,286046998.1,N
1513762996.0,286046998.1,N
1513763015.8,286046997.6,N
1513763035.7,286046997.7,N
1513763055.5,286046997.4,N
1513763075.3,286046998.0,N
1513763095.1,286046996.7,N
1513763115.9,286046996.6,N
1513763135.7,286046994.9,Y
1513763155.5,286046999.1,P
1513763175.4,286046998.3,N
1513763195.2,286046997.2,P
1513763215.0,286046999.4,N
1513763215.9,286046999.4,N
1513763235.8,286046994.9,Y
1513763255.6,286046998.5,P
1513763275.4,286047002.8,P
1513763295.3,286046999.1,N
1513763315.1,286046998.3,N
1513763335.8,286046998.4,N
1513763355.7,286046999.0,N
1513763375.5,286046995.5,Y
1513763395.3,286046998.0,P
1513763415.2,286046998.0,P
1513763435.9,286046993.7,P
1513763455.7,286046996.3,N
1513763475.6,286046993.0,Y
1513763495.4,286046999.6,P
1513763515.2,286046999.6,N
1513763535.1,286046999.4,N
1513763536.0,286046999.4,N
1513763555.8,286046998.4,N
1513763575.6,286046993.6,Y
1513763595.5,286046992.7,P
1513763615.3,286046989.8,P
1513763635.1,286046989.6,N
1513763655.9,286046986.8,Y
1513763675.7,286046990.2,P
1513763695.5,286046993.1,P
1513763715.4,286046990.7,P
1513763735.2,286046994.3,Y
1513763755.0,286047002.1,P
1513763755.9,286047002.1,N
1513763775.8,286047001.5,N
1513763795.6,286047005.6,N
1513763815.4,286047001.6,N
1513763835.3,286047000.1,N
1513763855.1,286046998.6,N
1513763856.0,286046998.6,N
1513763875.8,286046999.6,N
1513763895.7,286046997.6,N
1513763915.5,286047002.6,N
1513763935.3,286047001.7,N
1513763955.2,286047005.4,N
1513763975.9,286047003.6,N
1513763995.7,286047005.5,N
